Le nostre stazioni meteo in Italia

Pubblicità
Il mio iltempo24.it
Trapani/Birgi, Italia (16429): Temperatura & dewpoint: 16.10.2018 08:00:00 - 22.10.2018 08:00:00 (CEST)Trapani/Birgi, Italia (16429): velocità del vento: 16.10.2018 08:00:00 - 22.10.2018 08:00:00 (CEST)Trapani/Birgi, Italia (16429): direzione del vento: 16.10.2018 08:00:00 - 22.10.2018 08:00:00 (CEST)Trapani/Birgi, Italia (16429): reduced air pressure: 16.10.2018 08:00:00 - 22.10.2018 08:00:00 (CEST)Trapani/Birgi, Italia (16429): visibility: 16.10.2018 08:00:00 - 22.10.2018 08:00:00 (CEST)Trapani/Birgi, Italia (16429): ore di luce: 16.10.2018 08:00:00 - 22.10.2018 08:00:00 (CEST)
Data & Tempo tt [°C] td [°C] ff [km/h] ff [kn] dd ppp [hPa] vv [km] sd [min]
22.10.2018 08:00:00 15,2 13,6 2 1 N 1012,1 15 6
22.10.2018 07:00:00 16,2 14,2 4 2 ESE 1011,9 12 -
22.10.2018 06:00:00 16,8 14,8 11 6 NE 1012,1 12 -
22.10.2018 05:00:00 17,0 15,9 34 18 N 1012,3 10 -
22.10.2018 04:00:00 20,8 18,5 22 12 OSO 1012,2 12 -
22.10.2018 03:00:00 20,2 17,4 18 10 OSO 1013,3 12 -
22.10.2018 02:00:00 20,0 17,6 16 9 OSO 1014,2 12 -
22.10.2018 01:00:00 19,2 17,5 13 7 O 1014,8 12 -
22.10.2018 00:00:00 19,2 17,7 4 2 S 1015,1 12 -
21.10.2018 23:00:00 20,2 18,5 8 4 ONO 1015,4 12 -
21.10.2018 22:00:00 20,4 18,4 9 5 ONO 1015,5 12 -
21.10.2018 21:00:00 20,8 18,5 11 6 ONO 1015,2 12 -
21.10.2018 20:00:00 21,2 18,6 8 4 NO 1015,4 14 -
21.10.2018 19:00:00 21,4 18,2 9 5 NO 1015,5 14 -
21.10.2018 18:00:00 22,2 18,6 11 6 NO 1015,9 10 42
21.10.2018 17:00:00 23,0 18,5 13 7 NO 1016,2 16 -
21.10.2018 16:00:00 23,0 18,5 13 7 NO 1016,5 18 60
21.10.2018 15:00:00 23,0 18,3 13 7 NNO 1017,1 18 60
21.10.2018 14:00:00 23,0 18,1 15 8 NNO 1017,9 18 60
21.10.2018 13:00:00 22,4 17,8 13 7 NNO 1018,6 18 -
21.10.2018 12:00:00 22,0 17,8 9 5 NO 1018,9 16 -
21.10.2018 11:00:00 21,6 18,0 4 2 N 1019,0 14 -
21.10.2018 10:00:00 19,0 16,4 4 2 N 1019,0 12 0
21.10.2018 09:00:00 16,8 14,4 5 3 SE 1018,6 12 0
21.10.2018 08:00:00 15,8 13,5 8 4 SE 1018,3 12 0
21.10.2018 07:00:00 17,0 14,8 8 4 E 1018,5 12 -
21.10.2018 06:00:00 17,0 14,8 4 2 ESE 1018,9 12 -
21.10.2018 05:00:00 16,8 14,6 5 3 E 1019,0 12 -
21.10.2018 04:00:00 17,0 14,8 4 2 N 1019,1 12 -
21.10.2018 03:00:00 17,4 15,2 0 0 N 1019,8 12 -
21.10.2018 02:00:00 17,6 15,6 5 3 ESE 1020,0 12 -
21.10.2018 01:00:00 18,0 16,3 4 2 ENE 1020,1 12 -
21.10.2018 00:00:00 18,0 16,2 8 4 NNE 1020,1 12 -
20.10.2018 23:00:00 18,0 16,3 5 3 SSE 1020,2 12 -
20.10.2018 22:00:00 18,8 17,1 5 3 ENE 1020,1 12 -
20.10.2018 21:00:00 19,4 17,7 4 2 N 1019,6 12 -
20.10.2018 20:00:00 20,4 18,7 4 2 N 1019,4 15 -
20.10.2018 19:00:00 21,4 19,7 8 4 N 1019,2 16 0
20.10.2018 18:00:00 23,2 20,7 16 9 N 1019,2 16 30
20.10.2018 17:00:00 23,0 19,8 21 11 N 1019,2 16 60
20.10.2018 16:00:00 23,4 20,2 18 10 N 1019,3 16 60
20.10.2018 15:00:00 23,4 20,3 22 12 N 1019,8 16 60
20.10.2018 14:00:00 23,4 20,0 16 9 NNO 1020,0 18 60
20.10.2018 13:00:00 23,2 20,0 15 8 NNO 1020,5 16 60
20.10.2018 12:00:00 23,2 20,2 9 5 NO 1020,2 14 60
20.10.2018 11:00:00 22,2 18,6 5 3 O 1020,1 14 36
20.10.2018 10:00:00 20,2 18,0 2 1 E 1020,1 14 0
20.10.2018 09:00:00 17,6 15,4 2 1 SSE 1019,1 12 0
20.10.2018 08:00:00 16,4 14,2 4 2 ENE 1018,2 12 0
20.10.2018 07:00:00 16,6 14,4 8 4 ESE 1018,3 12 -
20.10.2018 06:00:00 16,4 14,8 5 3 ESE 1018,1 12 -
20.10.2018 05:00:00 16,4 14,6 5 3 ESE 1017,5 12 -
20.10.2018 04:00:00 16,4 14,8 8 4 ESE 1017,8 12 -
20.10.2018 03:00:00 16,0 -16,9 9 5 ESE 1017,3 12 -
20.10.2018 02:00:00 16,0 14,0 8 4 ESE 1017,3 12 -
20.10.2018 01:00:00 17,0 15,2 5 3 ESE 1017,4 12 -
20.10.2018 00:00:00 18,0 16,3 4 2 E 1017,1 12 -
19.10.2018 23:00:00 18,4 16,9 5 3 E 1017,1 12 -
19.10.2018 22:00:00 19,0 17,7 8 4 SE 1016,7 12 -
19.10.2018 21:00:00 20,0 18,0 5 3 ESE 1016,2 12 -
19.10.2018 20:00:00 21,0 18,4 2 1 N 1015,8 12 -
19.10.2018 19:00:00 21,2 18,4 5 3 O 1014,7 20 -
19.10.2018 18:00:00 22,4 18,6 8 4 O 1014,1 25 54
19.10.2018 17:00:00 23,2 18,5 11 6 OSO 1013,6 25 60
19.10.2018 16:00:00 23,2 18,7 11 6 O 1013,6 25 60
19.10.2018 15:00:00 23,0 18,8 9 5 OSO 1013,1 20 60
19.10.2018 14:00:00 22,8 17,9 16 9 SO 1013,1 20 60
19.10.2018 13:00:00 22,8 17,9 18 10 SO 1013,1 10 60
19.10.2018 12:00:00 22,4 15,0 16 9 O 1013,0 20 60
19.10.2018 11:00:00 22,4 16,0 8 4 S 1012,2 20 60
19.10.2018 10:00:00 20,0 14,8 9 5 S 1011,9 20 42
19.10.2018 09:00:00 16,6 14,2 5 3 E 1011,1 10 42
19.10.2018 08:00:00 15,2 13,2 9 5 SE 1010,7 10 0
19.10.2018 07:00:00 15,0 13,2 8 4 ESE 1010,1 12 -
19.10.2018 06:00:00 15,4 13,4 9 5 SE 1010,1 12 -
19.10.2018 05:00:00 16,0 13,7 4 2 - 1010,0 12 -
19.10.2018 04:00:00 16,0 13,3 5 3 ENE 1010,0 12 -
19.10.2018 03:00:00 15,2 12,9 8 4 NNE 1009,9 12 -
19.10.2018 02:00:00 15,4 13,3 8 4 NNE 1008,7 12 -
19.10.2018 01:00:00 16,2 13,3 5 3 NE 1009,1 10 -
19.10.2018 00:00:00 16,2 12,6 4 2 E 1010,1 12 -
18.10.2018 23:00:00 16,0 13,1 9 5 ENE 1009,1 12 -
18.10.2018 22:00:00 17,6 12,5 9 5 ESE 1008,4 12 -
18.10.2018 21:00:00 17,2 12,9 13 7 E 1008,4 12 -
18.10.2018 20:00:00 17,0 13,0 15 8 E 1008,5 12 -
18.10.2018 19:00:00 17,0 13,5 15 8 E 1008,5 12 -
18.10.2018 18:00:00 16,2 14,2 24 13 ESE 1008,1 12 0
18.10.2018 17:00:00 16,4 14,8 13 7 SE 1008,1 6 0
18.10.2018 16:00:00 19,0 17,3 22 12 N 1007,1 6 0
18.10.2018 15:00:00 19,0 17,8 24 13 N 1008,1 5 0
18.10.2018 14:00:00 20,0 19,0 18 10 N 1008,2 7 0
18.10.2018 13:00:00 20,0 19,0 24 13 N 1009,8 6 0
18.10.2018 12:00:00 20,6 17,0 22 12 NNO 1009,9 12 0
18.10.2018 11:00:00 23,8 16,1 9 5 E 1009,1 12 0
18.10.2018 10:00:00 23,6 14,9 26 14 ESE 1008,4 16 0
18.10.2018 09:00:00 23,0 14,3 18 10 E 1008,1 16 0
18.10.2018 08:00:00 19,6 14,6 21 11 ESE 1007,5 16 0
18.10.2018 07:00:00 18,0 15,6 5 3 ENE 1008,3 15 -
18.10.2018 06:00:00 18,0 15,4 8 4 E 1008,1 10 -
18.10.2018 05:00:00 19,0 15,5 4 2 ENE 1008,1 15 -
18.10.2018 04:00:00 19,2 15,3 4 2 NE 1008,1 15 -
18.10.2018 03:00:00 20,0 16,0 11 6 ENE 1008,3 15 -
18.10.2018 02:00:00 20,0 17,8 11 6 ENE 1009,3 15 -
18.10.2018 01:00:00 20,0 18,0 5 3 ESE 1010,4 15 -
18.10.2018 00:00:00 20,0 18,5 5 3 ENE 1011,0 10 -
17.10.2018 23:00:00 20,2 19,0 9 5 E 1011,6 15 -
17.10.2018 22:00:00 20,6 19,2 5 3 SSE 1011,9 15 -
17.10.2018 21:00:00 22,0 20,3 4 2 N 1011,6 15 -
17.10.2018 20:00:00 22,0 19,6 5 3 SO 1011,7 15 -
17.10.2018 19:00:00 23,0 19,4 4 2 N 1011,3 14 -
17.10.2018 18:00:00 23,4 18,7 4 2 N 1011,3 14 -
17.10.2018 17:00:00 24,0 18,9 13 7 N 1012,1 14 18
17.10.2018 16:00:00 24,2 19,9 13 7 NNO 1012,2 16 60
17.10.2018 15:00:00 24,0 19,9 18 10 NNO 1013,0 18 48
17.10.2018 14:00:00 24,0 19,9 13 7 NNO 1013,1 18 18
17.10.2018 13:00:00 25,6 18,8 15 8 SSE 1014,2 18 54
17.10.2018 12:00:00 25,0 18,2 15 8 SE 1014,4 18 60
17.10.2018 11:00:00 24,4 15,1 13 7 ESE 1014,5 18 54
17.10.2018 10:00:00 22,6 16,4 4 2 N 1014,5 18 42
17.10.2018 09:00:00 20,0 15,9 4 2 N 1014,6 18 6
17.10.2018 08:00:00 19,4 17,0 4 2 N 1014,6 16 0
17.10.2018 07:00:00 20,0 16,4 4 2 SO 1014,6 12 -
17.10.2018 06:00:00 20,0 16,4 11 6 ESE 1014,2 12 -
17.10.2018 05:00:00 20,0 18,1 11 6 E 1014,9 12 -
17.10.2018 04:00:00 20,2 17,8 18 10 ESE 1016,1 12 -
17.10.2018 03:00:00 20,2 17,6 16 9 ESE 1016,2 12 -
17.10.2018 02:00:00 20,4 18,4 13 7 SE 1016,2 12 -
17.10.2018 01:00:00 20,8 19,1 16 9 SE 1016,4 12 -
17.10.2018 00:00:00 21,0 19,1 5 3 ESE 1016,6 12 -
16.10.2018 23:00:00 21,0 18,9 16 9 ESE 1016,4 12 -
16.10.2018 22:00:00 21,2 21,2 9 5 ESE 1017,3 12 -
16.10.2018 21:00:00 21,4 19,7 15 8 SE 1016,0 12 -
16.10.2018 20:00:00 22,0 20,1 21 11 SE 1015,9 12 -
16.10.2018 19:00:00 22,4 20,1 18 10 SE 1015,6 15 -
16.10.2018 18:00:00 23,2 20,5 24 13 SE 1015,3 18 0
16.10.2018 17:00:00 23,8 20,5 29 16 SE 1015,2 18 0
16.10.2018 16:00:00 23,8 20,3 31 17 SE 1015,2 18 6
16.10.2018 15:00:00 24,0 19,9 35 19 SSE 1015,1 18 0
16.10.2018 14:00:00 24,2 19,5 34 18 SE 1015,1 18 12
16.10.2018 13:00:00 25,0 20,0 34 18 SE 1015,4 10 18
16.10.2018 12:00:00 24,2 19,3 35 19 SE 1015,9 18 60
16.10.2018 11:00:00 23,8 19,1 34 18 SSE 1015,6 18 60
16.10.2018 10:00:00 22,2 18,0 29 16 SE 1015,2 18 48
16.10.2018 09:00:00 21,0 17,4 21 11 ESE 1015,0 18 18
16.10.2018 08:00:00 19,8 16,4 15 8 ESE 1014,9 18 0

tt = Temperatura
td = dewpoint
ff = velocità del vento
dd = direzione del vento
ppp = reduced air pressure
vv = visibility
sd = ore di luce

Stazioni seguenti

WeatherPro
AMSI
MeteoEarth